Regional Weather Roundup
Issued by NWS

Home | Current Version | Previous Version | Text Only | Print | Product List | Glossary On
Versions: 1 2 3 4 5 6 7 8 9 10 11 12 13 14 15 16 17 18 19 20 21 22 23 24 25 26 27 28 29 30 31 32 33 34 35 36 37 38 39 40 41 42 43 44 45 46 47 48 49 50
000
ASUS43 KTOP 221008
RWRKS

WEATHER ROUNDUP FOR KANSAS
NATIONAL WEATHER SERVICE GOODLAND KS
500 AM CDT TUE AUG 22 2017

NOTE:  "FAIR" INDICATES FEW OR NO CLOUDS BELOW 12,000 FEET WITH NO
SIGNIFICANT WEATHER AND/OR OBSTRUCTIONS TO VISIBILITY.

KSZ001>006-013>018-027>032-041>047-221100-
NORTHWEST KANSAS

CITY           SKY/WX    TMP DP  RH WIND       PRES   REMARKS
GOODLAND       CLEAR     63  63 100 N10       30.20F
HAYS           PTCLDY    68  65  90 N12       30.07R
HILL CITY      CLEAR     67  64  90 N8        30.12R
RUSSELL        CLOUDY    69  64  84 N17G24    30.04R
$$

KSZ061>065-074>080-084>089-221100-
SOUTHWEST KANSAS

CITY           SKY/WX    TMP DP  RH WIND       PRES   REMARKS
DODGE CITY     PTCLDY    69  66  90 N13       30.06R
ELKHART          N/A     65  65 100 NW7         N/A
GARDEN CITY    CLEAR     68  64  87 N18       30.09S
GREAT BEND     MOCLDY    70  69  97 N12       30.02R
LIBERAL        CLEAR     67  64  90 NW6       30.09S
PRATT          CLEAR     70  66  86 W6        30.02R
$$

KSZ066>073-081>083-090>101-221100-
SOUTHEAST KANSAS

CITY           SKY/WX    TMP DP  RH WIND       PRES   REMARKS
CHANUTE        CLEAR     78  73  84 SW10      29.97R
COFFEYVILLE    PTCLDY    79  72  79 SW14G23   29.96F
HUTCHINSON     MOCLDY    75  70  84 W7        29.98R
MEDICINE LODGE   N/A     73  68  84 SW3       29.99S
NEWTON         MOCLDY    76  69  79 SW13      29.97S
PARSONS        CLOUDY    78  72  81 SW9       29.98S
WICHITA INTL   MOCLDY    75  71  87 SW9       29.96F
WICHITA JABRA  CLEAR     77  71  82 SW15      29.96F
WICHITA MCCONL CLEAR     76  69  78 SW12      29.97F
WINFIELD       PTCLDY    77  69  76 S10       29.99S
$$

KSZ007>012-019>026-033>040-048>060-102>105-221100-
NORTHEAST KANSAS

CITY           SKY/WX    TMP DP  RH WIND       PRES   REMARKS
CONCORDIA      CLOUDY    68  66  93 NE10      30.06R
EMPORIA        CLOUDY    67  64  90 N8        30.00R
LAWRENCE       CLOUDY    68  67  96 SE9       30.00R
MANHATTAN      CLOUDY    68  66  93 E10       30.00R
MARYSVILLE     CLOUDY    66  64  94 NE5       30.07R
OLATHE IND     LGT RAIN  66  65  96 SE8       30.00R
OLATHE EXE     LGT RAIN  65  65 100 SE7       29.98F
SALINA         CLEAR     75  68  78 N8        29.97S
TOPEKA BILLARD CLOUDY    68  68 100 CALM      30.01R
TOPEKA FORBES  CLOUDY    68  67  96 E8        30.00S
$$




USA.gov is the U.S. government's official web portal to all federal, state and local government web resources and services.